Time,TemperatureF,DewpointF,PressureIn,WindDirection,WindDirectionDegrees,WindSpeedMPH,WindSpeedGustMPH,Humidity,HourlyPrecipIn,Conditions,Clouds,dailyrainin,SoftwareType,DateUTC
2013-03-12 00:02:00,36.0,35.0,-100.00,SSW,205,18.0,23.0,96,0.00,,,-99.99,,2013-03-12 04:02:00,
2013-03-12 00:13:00,36.0,35.0,-100.00,SSW,205,17.0,22.0,95,0.00,,,-99.99,,2013-03-12 04:13:00,
2013-03-12 00:22:00,35.0,34.0,-100.00,SW,215,17.0,23.0,94,0.00,,,-99.99,,2013-03-12 04:22:00,
2013-03-12 00:32:00,35.0,34.0,-100.00,SW,220,18.0,25.0,94,0.00,,,-99.99,,2013-03-12 04:32:00,
2013-03-12 00:43:00,35.0,34.0,-100.00,SSW,210,12.0,21.0,95,0.00,,,-99.99,,2013-03-12 04:43:00,
2013-03-12 00:52:00,35.0,34.0,-100.00,SSW,210,10.0,17.0,96,0.00,,,-99.99,,2013-03-12 04:52:00,
2013-03-12 01:02:00,35.0,35.0,-100.00,SSW,210,12.0,18.0,96,0.00,,,-99.99,,2013-03-12 05:02:00,
2013-03-12 01:12:00,35.0,34.0,-100.00,SSW,210,14.0,23.0,94,0.00,,,-99.99,,2013-03-12 05:12:00,
2013-03-12 01:22:00,35.0,33.0,-100.00,SW,215,19.0,24.0,93,0.00,,,-99.99,,2013-03-12 05:22:00,
2013-03-12 01:32:00,35.0,33.0,-100.00,SW,215,16.0,22.0,93,0.00,,,-99.99,,2013-03-12 05:32:00,
2013-03-12 01:42:00,34.0,33.0,-100.00,SSW,210,17.0,27.0,96,0.00,,,-99.99,,2013-03-12 05:42:00,
2013-03-12 01:52:00,34.0,33.0,-100.00,SSW,210,15.0,22.0,95,0.00,,,-99.99,,2013-03-12 05:52:00,
2013-03-12 02:02:00,34.0,33.0,-100.00,SW,215,15.0,22.0,94,0.00,,,-99.99,,2013-03-12 06:02:00,
2013-03-12 02:12:00,34.0,33.0,-100.00,SSW,210,16.0,20.0,93,0.00,,,-99.99,,2013-03-12 06:12:00,
2013-03-12 02:22:00,34.0,32.0,-100.00,SW,220,20.0,26.0,92,0.00,,,-99.99,,2013-03-12 06:22:00,
2013-03-12 02:32:00,34.0,32.0,-100.00,SW,220,16.0,23.0,91,0.00,,,-99.99,,2013-03-12 06:32:00,
2013-03-12 02:42:00,34.0,32.0,-100.00,SW,215,14.0,25.0,93,0.00,,,-99.99,,2013-03-12 06:42:00,
2013-03-12 02:52:00,34.0,32.0,-100.00,SW,215,13.0,23.0,93,0.00,,,-99.99,,2013-03-12 06:52:00,
2013-03-12 03:02:00,34.0,33.0,-100.00,SW,220,16.0,21.0,95,0.00,,,-99.99,,2013-03-12 07:02:00,
2013-03-12 03:12:00,33.0,32.0,-100.00,SW,215,17.0,24.0,95,0.00,,,-99.99,,2013-03-12 07:12:00,
2013-03-12 03:22:00,33.0,32.0,-100.00,SW,215,14.0,20.0,96,0.00,,,-99.99,,2013-03-12 07:22:00,
2013-03-12 03:32:00,33.0,32.0,-100.00,SW,220,14.0,21.0,96,0.00,,,-99.99,,2013-03-12 07:32:00,
2013-03-12 03:42:00,33.0,32.0,-100.00,SW,220,15.0,22.0,96,0.00,,,-99.99,,2013-03-12 07:42:00,
2013-03-12 03:52:00,33.0,32.0,-100.00,SW,220,17.0,22.0,95,0.00,,,-99.99,,2013-03-12 07:52:00,
2013-03-12 04:02:00,33.0,32.0,-100.00,SW,220,14.0,19.0,94,0.00,,,-99.99,,2013-03-12 08:02:00,
2013-03-12 04:13:00,33.0,32.0,-100.00,SW,215,15.0,23.0,93,0.00,,,-99.99,,2013-03-12 08:13:00,
2013-03-12 04:22:00,33.0,32.0,-100.00,SW,215,14.0,22.0,94,0.00,,,-99.99,,2013-03-12 08:22:00,
2013-03-12 04:33:00,33.0,32.0,-100.00,SW,220,12.0,18.0,94,0.00,,,-99.99,,2013-03-12 08:33:00,
2013-03-12 04:42:00,33.0,32.0,-100.00,SW,220,12.0,22.0,94,0.00,,,-99.99,,2013-03-12 08:42:00,
2013-03-12 04:52:00,33.0,32.0,-100.00,SW,220,14.0,22.0,94,0.00,,,-99.99,,2013-03-12 08:52:00,
2013-03-12 05:03:00,33.0,32.0,-100.00,SW,220,14.0,22.0,94,0.00,,,-99.99,,2013-03-12 09:03:00,
2013-03-12 05:12:00,33.0,32.0,-100.00,SW,215,11.0,21.0,96,0.00,,,-99.99,,2013-03-12 09:12:00,
2013-03-12 05:22:00,33.0,32.0,-100.00,SW,225,15.0,21.0,95,0.00,,,-99.99,,2013-03-12 09:22:00,
2013-03-12 05:33:00,33.0,31.0,-100.00,SW,225,13.0,21.0,94,0.00,,,-99.99,,2013-03-12 09:33:00,
2013-03-12 05:42:00,33.0,32.0,-100.00,SSW,210,10.0,19.0,94,0.00,,,-99.99,,2013-03-12 09:42:00,
2013-03-12 05:52:00,33.0,31.0,-100.00,SSW,210,12.0,21.0,93,0.00,,,-99.99,,2013-03-12 09:52:00,
2013-03-12 06:02:00,33.0,32.0,-100.00,SSW,210,13.0,17.0,95,0.00,,,-99.99,,2013-03-12 10:02:00,
2013-03-12 06:12:00,32.0,32.0,-100.00,SW,215,13.0,18.0,98,0.00,,,-99.99,,2013-03-12 10:12:00,
2013-03-12 06:22:00,33.0,32.0,-100.00,SW,220,11.0,18.0,99,0.00,,,-99.99,,2013-03-12 10:22:00,
2013-03-12 06:32:00,33.0,32.0,-100.00,SW,220,13.0,20.0,97,0.00,,,-99.99,,2013-03-12 10:32:00,
2013-03-12 06:42:00,33.0,32.0,-100.00,SW,220,10.0,16.0,98,0.00,,,-99.99,,2013-03-12 10:42:00,
2013-03-12 06:52:00,32.0,32.0,-100.00,SW,220,13.0,18.0,97,0.00,,,-99.99,,2013-03-12 10:52:00,
2013-03-12 07:02:00,32.0,32.0,-100.00,SW,215,13.0,17.0,98,0.00,,,-99.99,,2013-03-12 11:02:00,
2013-03-12 07:12:00,32.0,-99.9,-100.00,SW,220,11.0,17.0,-999,0.00,,,-99.99,,2013-03-12 11:12:00,
2013-03-12 07:22:00,32.0,-99.9,-100.00,SW,220,10.0,15.0,-999,0.00,,,-99.99,,2013-03-12 11:22:00,
2013-03-12 07:33:00,32.0,-99.9,-100.00,SW,220,10.0,17.0,-999,0.00,,,-99.99,,2013-03-12 11:33:00,
2013-03-12 07:43:00,32.0,-99.9,-100.00,SW,225,11.0,17.0,-999,0.00,,,-99.99,,2013-03-12 11:43:00,
2013-03-12 07:52:00,32.0,32.0,-100.00,SW,225,11.0,19.0,98,0.00,,,-99.99,,2013-03-12 11:52:00,
2013-03-12 08:03:00,32.0,32.0,-100.00,SW,220,12.0,18.0,98,0.00,,,-99.99,,2013-03-12 12:03:00,
2013-03-12 08:12:00,32.0,32.0,-100.00,SW,220,10.0,17.0,99,0.00,,,-99.99,,2013-03-12 12:12:00,
2013-03-12 08:22:00,32.0,32.0,-100.00,SW,225,10.0,14.0,99,0.00,,,-99.99,,2013-03-12 12:22:00,
2013-03-12 08:32:00,32.0,31.0,-100.00,SW,220,13.0,17.0,97,0.00,,,-99.99,,2013-03-12 12:32:00,
2013-03-12 08:42:00,32.0,30.0,-100.00,SW,220,11.0,18.0,94,0.00,,,-99.99,,2013-03-12 12:42:00,
2013-03-12 08:52:00,32.0,30.0,-100.00,SW,220,12.0,20.0,93,0.00,,,-99.99,,2013-03-12 12:52:00,
2013-03-12 09:02:00,32.0,30.0,-100.00,SW,215,11.0,16.0,93,0.00,,,-99.99,,2013-03-12 13:02:00,
2013-03-12 09:12:00,32.0,30.0,-100.00,SW,215,15.0,19.0,93,0.00,,,-99.99,,2013-03-12 13:12:00,
2013-03-12 09:22:00,31.0,31.0,-100.00,SW,215,14.0,19.0,95,0.00,,,-99.99,,2013-03-12 13:22:00,
2013-03-12 09:32:00,31.0,31.0,-100.00,SW,215,14.0,21.0,96,0.00,,,-99.99,,2013-03-12 13:32:00,
2013-03-12 09:42:00,31.0,30.0,-100.00,SW,220,11.0,20.0,95,0.00,,,-99.99,,2013-03-12 13:42:00,
2013-03-12 09:52:00,32.0,30.0,-100.00,SW,220,11.0,21.0,94,0.00,,,-99.99,,2013-03-12 13:52:00,
2013-03-12 10:02:00,31.0,30.0,-100.00,SW,215,13.0,21.0,94,0.00,,,-99.99,,2013-03-12 14:02:00,
2013-03-12 10:12:00,31.0,30.0,-100.00,SW,215,13.0,21.0,94,0.00,,,-99.99,,2013-03-12 14:12:00,
2013-03-12 10:22:00,32.0,30.0,-100.00,SW,220,10.0,18.0,92,0.00,,,-99.99,,2013-03-12 14:22:00,
2013-03-12 10:33:00,32.0,30.0,-100.00,SW,215,11.0,18.0,91,0.00,,,-99.99,,2013-03-12 14:33:00,
2013-03-12 10:42:00,32.0,30.0,-100.00,SW,215,13.0,20.0,92,0.00,,,-99.99,,2013-03-12 14:42:00,
2013-03-12 10:53:00,31.0,30.0,-100.00,SSW,210,14.0,19.0,94,0.00,,,-99.99,,2013-03-12 14:53:00,
2013-03-12 11:02:00,32.0,30.0,-100.00,SSW,210,14.0,19.0,93,0.00,,,-99.99,,2013-03-12 15:02:00,
2013-03-12 11:12:00,32.0,30.0,-100.00,SW,220,12.0,17.0,93,0.00,,,-99.99,,2013-03-12 15:12:00,
2013-03-12 11:22:00,31.0,30.0,-100.00,SSW,210,12.0,18.0,93,0.00,,,-99.99,,2013-03-12 15:22:00,
2013-03-12 11:32:00,32.0,30.0,-100.00,SW,215,12.0,19.0,92,0.00,,,-99.99,,2013-03-12 15:32:00,
2013-03-12 11:42:00,31.0,29.0,-100.00,SSW,210,16.0,22.0,90,0.00,,,-99.99,,2013-03-12 15:42:00,
2013-03-12 11:52:00,31.0,29.0,-100.00,SSW,210,15.0,21.0,89,0.00,,,-99.99,,2013-03-12 15:52:00,
2013-03-12 12:03:00,32.0,28.0,-100.00,SSW,210,12.0,18.0,87,0.00,,,-99.99,,2013-03-12 16:03:00,
2013-03-12 12:12:00,31.0,29.0,-100.00,SSW,210,12.0,17.0,91,0.00,,,-99.99,,2013-03-12 16:12:00,
2013-03-12 12:22:00,32.0,29.0,-100.00,SSW,205,15.0,21.0,89,0.00,,,-99.99,,2013-03-12 16:22:00,
2013-03-12 12:33:00,31.0,28.0,-100.00,SSW,200,17.0,22.0,88,0.00,,,-99.99,,2013-03-12 16:33:00,
2013-03-12 12:43:00,31.0,28.0,-100.00,SSW,200,16.0,21.0,87,0.00,,,-99.99,,2013-03-12 16:43:00,
2013-03-12 12:52:00,31.0,28.0,-100.00,SSW,205,12.0,21.0,86,0.00,,,-99.99,,2013-03-12 16:52:00,
2013-03-12 13:03:00,31.0,27.0,-100.00,SSW,205,16.0,24.0,84,0.00,,,-99.99,,2013-03-12 17:03:00,
2013-03-12 13:13:00,31.0,27.0,-100.00,SSW,200,19.0,24.0,84,0.00,,,-99.99,,2013-03-12 17:13:00,
2013-03-12 13:22:00,31.0,27.0,-100.00,SSW,200,14.0,20.0,84,0.00,,,-99.99,,2013-03-12 17:22:00,
2013-03-12 13:34:00,31.0,27.0,-100.00,SSW,205,16.0,20.0,82,0.00,,,-99.99,,2013-03-12 17:34:00,
2013-03-12 13:43:00,31.0,27.0,-100.00,SSW,210,14.0,21.0,81,0.00,,,-99.99,,2013-03-12 17:43:00,
2013-03-12 13:53:00,31.0,26.0,-100.00,SW,215,15.0,19.0,79,0.00,,,-99.99,,2013-03-12 17:53:00,
2013-03-12 14:03:00,31.0,26.0,-100.00,SW,215,15.0,20.0,79,0.00,,,-99.99,,2013-03-12 18:03:00,
2013-03-12 14:13:00,32.0,26.0,-100.00,SSW,210,16.0,21.0,79,0.00,,,-99.99,,2013-03-12 18:13:00,
2013-03-12 14:23:00,32.0,26.0,-100.00,SSW,210,16.0,21.0,79,0.00,,,-99.99,,2013-03-12 18:23:00,
2013-03-12 14:33:00,32.0,26.0,-100.00,SW,220,18.0,21.0,77,0.00,,,-99.99,,2013-03-12 18:33:00,
2013-03-12 14:42:00,32.0,26.0,-100.00,SW,215,14.0,18.0,78,0.00,,,-99.99,,2013-03-12 18:42:00,
2013-03-12 14:53:00,32.0,26.0,-100.00,SW,220,15.0,19.0,77,0.00,,,-99.99,,2013-03-12 18:53:00,
2013-03-12 15:04:00,32.0,26.0,-100.00,SW,220,15.0,19.0,77,0.00,,,-99.99,,2013-03-12 19:04:00,
2013-03-12 15:13:00,33.0,27.0,-100.00,SSW,210,14.0,24.0,78,0.00,,,-99.99,,2013-03-12 19:13:00,
2013-03-12 15:23:00,33.0,27.0,-100.00,SSW,205,14.0,23.0,80,0.00,,,-99.99,,2013-03-12 19:23:00,
2013-03-12 15:33:00,33.0,28.0,-100.00,SSW,210,13.0,21.0,80,0.00,,,-99.99,,2013-03-12 19:33:00,
2013-03-12 15:43:00,33.0,27.0,-100.00,SW,215,14.0,17.0,80,0.00,,,-99.99,,2013-03-12 19:43:00,
2013-03-12 15:53:00,33.0,28.0,-100.00,SSW,205,15.0,19.0,81,0.00,,,-99.99,,2013-03-12 19:53:00,
2013-03-12 16:02:00,33.0,28.0,-100.00,SSW,210,14.0,20.0,80,0.00,,,-99.99,,2013-03-12 20:02:00,
2013-03-12 16:12:00,33.0,27.0,-100.00,SSW,210,17.0,21.0,80,0.00,,,-99.99,,2013-03-12 20:12:00,
2013-03-12 16:23:00,33.0,28.0,-100.00,SSW,205,12.0,19.0,81,0.00,,,-99.99,,2013-03-12 20:23:00,
2013-03-12 16:33:00,33.0,28.0,-100.00,SSW,205,12.0,19.0,81,0.00,,,-99.99,,2013-03-12 20:33:00,
2013-03-12 16:42:00,33.0,27.0,-100.00,SW,215,13.0,18.0,77,0.00,,,-99.99,,2013-03-12 20:42:00,
2013-03-12 16:52:00,34.0,28.0,-100.00,SW,215,9.0,17.0,79,0.00,,,-99.99,,2013-03-12 20:52:00,
2013-03-12 17:03:00,34.0,27.0,-100.00,SSW,210,17.0,22.0,77,0.00,,,-99.99,,2013-03-12 21:03:00,
2013-03-12 17:13:00,34.0,28.0,-100.00,SSW,210,13.0,22.0,77,0.00,,,-99.99,,2013-03-12 21:13:00,
2013-03-12 17:22:00,34.0,27.0,-100.00,SSW,210,17.0,23.0,75,0.00,,,-99.99,,2013-03-12 21:22:00,
2013-03-12 17:33:00,34.0,27.0,-100.00,SSW,205,14.0,20.0,76,0.00,,,-99.99,,2013-03-12 21:33:00,
2013-03-12 17:43:00,34.0,28.0,-100.00,SSW,210,11.0,16.0,77,0.00,,,-99.99,,2013-03-12 21:43:00,
2013-03-12 17:52:00,34.0,28.0,-100.00,SSW,210,9.0,15.0,77,0.00,,,-99.99,,2013-03-12 21:52:00,
2013-03-12 18:03:00,34.0,28.0,-100.00,SSW,210,11.0,16.0,76,0.00,,,-99.99,,2013-03-12 22:03:00,
2013-03-12 18:12:00,34.0,28.0,-100.00,SSW,210,9.0,17.0,76,0.00,,,-99.99,,2013-03-12 22:12:00,
2013-03-12 18:22:00,34.0,27.0,-100.00,SW,215,11.0,18.0,75,0.00,,,-99.99,,2013-03-12 22:22:00,
2013-03-12 18:33:00,34.0,26.0,-100.00,SW,215,14.0,21.0,71,0.00,,,-99.99,,2013-03-12 22:33:00,
2013-03-12 18:43:00,34.0,26.0,-100.00,SW,220,13.0,22.0,70,0.00,,,-99.99,,2013-03-12 22:43:00,
2013-03-12 18:52:00,34.0,26.0,-100.00,SW,215,17.0,24.0,70,0.00,,,-99.99,,2013-03-12 22:52:00,
2013-03-12 19:03:00,34.0,26.0,-100.00,SW,220,15.0,21.0,69,0.00,,,-99.99,,2013-03-12 23:03:00,
2013-03-12 19:12:00,34.0,25.0,-100.00,SSW,210,14.0,24.0,69,0.00,,,-99.99,,2013-03-12 23:12:00,
2013-03-12 19:22:00,35.0,26.0,-100.00,SW,215,12.0,19.0,69,0.00,,,-99.99,,2013-03-12 23:22:00,
2013-03-12 19:34:00,34.0,26.0,-100.00,SW,220,11.0,14.0,70,0.00,,,-99.99,,2013-03-12 23:34:00,
2013-03-12 19:43:00,34.0,25.0,-100.00,SW,220,10.0,17.0,68,0.00,,,-99.99,,2013-03-12 23:43:00,
2013-03-12 19:52:00,34.0,25.0,-100.00,SW,225,9.0,16.0,69,0.00,,,-99.99,,2013-03-12 23:52:00,
2013-03-12 20:03:00,33.0,25.0,-100.00,SW,215,11.0,16.0,72,0.00,,,-99.99,,2013-03-13 00:03:00,
2013-03-12 20:12:00,33.0,26.0,-100.00,SW,215,9.0,17.0,74,0.00,,,-99.99,,2013-03-13 00:12:00,
2013-03-12 20:23:00,32.0,26.0,-100.00,SW,215,5.0,16.0,76,0.00,,,-99.99,,2013-03-13 00:23:00,
2013-03-12 20:33:00,32.0,26.0,-100.00,SSW,210,7.0,10.0,77,0.00,,,-99.99,,2013-03-13 00:33:00,
2013-03-12 20:42:00,32.0,26.0,-100.00,SSW,200,6.0,11.0,80,0.00,,,-99.99,,2013-03-13 00:42:00,
2013-03-12 20:53:00,32.0,27.0,-100.00,SSW,200,8.0,11.0,82,0.00,,,-99.99,,2013-03-13 00:53:00,
2013-03-12 21:03:00,32.0,27.0,-100.00,SSW,200,7.0,11.0,82,0.00,,,-99.99,,2013-03-13 01:03:00,
2013-03-12 21:12:00,31.0,27.0,-100.00,SSW,195,7.0,10.0,83,0.00,,,-99.99,,2013-03-13 01:12:00,
2013-03-12 21:22:00,31.0,27.0,-100.00,SSW,195,6.0,7.0,83,0.00,,,-99.99,,2013-03-13 01:22:00,
2013-03-12 21:33:00,31.0,27.0,-100.00,South,190,4.0,7.0,85,0.00,,,-99.99,,2013-03-13 01:33:00,
2013-03-12 21:42:00,31.0,27.0,-100.00,South,190,4.0,7.0,85,0.00,,,-99.99,,2013-03-13 01:42:00,
2013-03-12 21:52:00,32.0,28.0,-100.00,SSW,195,7.0,9.0,85,0.00,,,-99.99,,2013-03-13 01:52:00,
2013-03-12 22:03:00,31.0,29.0,-100.00,SW,215,9.0,14.0,89,6.22,,,-99.99,,2013-03-13 02:03:00,
2013-03-12 22:12:00,31.0,30.0,-100.00,SSW,200,9.0,14.0,95,15.28,,,-99.99,,2013-03-13 02:12:00,
2013-03-12 22:22:00,31.0,30.0,-100.00,South,190,11.0,14.0,99,1.10,,,-99.99,,2013-03-13 02:22:00,
2013-03-12 22:33:00,30.0,-99.9,-100.00,South,190,11.0,14.0,-999,0.00,,,-99.99,,2013-03-13 02:33:00,
2013-03-12 22:43:00,30.0,-99.9,-100.00,South,190,11.0,13.0,-999,1.69,,,-99.99,,2013-03-13 02:43:00,
2013-03-12 22:53:00,31.0,-99.9,-100.00,SSW,205,11.0,16.0,-999,2.83,,,-99.99,,2013-03-13 02:53:00,
2013-03-12 23:03:00,31.0,-99.9,-100.00,SSW,210,13.0,21.0,-999,0.00,,,-99.99,,2013-03-13 03:03:00,
2013-03-12 23:13:00,31.0,-99.9,-100.00,SW,220,14.0,17.0,-999,0.00,,,-99.99,,2013-03-13 03:13:00,
2013-03-12 23:23:00,31.0,-99.9,-100.00,SW,215,11.0,17.0,-999,0.00,,,-99.99,,2013-03-13 03:23:00,
2013-03-12 23:33:00,30.0,-99.9,-100.00,SW,220,11.0,14.0,-999,0.00,,,-99.99,,2013-03-13 03:33:00,
2013-03-12 23:43:00,30.0,-99.9,-100.00,SW,215,10.0,14.0,-999,0.00,,,-99.99,,2013-03-13 03:43:00,
2013-03-12 23:53:00,30.0,-99.9,-100.00,SW,215,9.0,13.0,-999,0.00,,,-99.99,,2013-03-13 03:53:00,